Regional Weather Roundup
Issued by NWS

Home | Current Version | Previous Version | Graphics & Text | Print | Product List | Glossary Off
Versions: 1 2 3 4 5 6 7 8 9 10 11 12 13 14 15 16 17 18 19 20 21 22 23 24 25 26 27 28 29 30 31 32 33 34 35 36 37 38 39 40 41 42 43 44 45 46 47 48 49 50

000
ASUS43 KMKX 181111
RWRWI

WISCONSIN REGIONAL WEATHER ROUNDUP
NATIONAL WEATHER SERVICE MILWAUKEE/SULLIVAN WI
500 AM CST WED JAN 18 2017

NOTE: "FAIR" INDICATES FEW OR NO CLOUDS BELOW 12,000 FEET WITH NO
SIGNIFICANT WEATHER AND/OR OBSTRUCTIONS TO VISIBILITY.

WIZ001-002-006>008-014>016-023>028-181200-
NORTHWEST WISCONSIN

CITY           SKY/WX    TMP DP  RH WIND       PRES   REMARKS
SUPERIOR ARPT  CLOUDY    25  23  91 SW7       29.83F WCI  18
ASHLAND          N/A     30  25  81 SW13      29.85F WCI  20
HAYWARD        CLOUDY    28  25  88 S10       29.88F WCI  19
SIREN          CLOUDY    27  25  92 S7        29.89F WCI  20
CUMBERLAND     CLOUDY    28  27  93 S12       29.93S WCI  18
RICE LAKE      CLOUDY    28  27  93 S9        29.95F WCI  20
CHETEK         CLOUDY    29  28  95 S6        29.95F WCI  23
LADYSMITH      CLOUDY    31  30  98 SW9       29.95F WCI  22
EAU CLAIRE     CLOUDY    29  28  96 S8        29.97F WCI  21
MENOMONIE      CLOUDY    29  27  92 MISG      29.98S
NEW RICHMOND   CLOUDY    26  25  96 S7        29.95F WCI  18
OSCEOLA        CLOUDY    27  27 100 S9        29.96F WCI  17
$$

WIZ003>005-009-010-017-018-181200-
NORTH CENTRAL WISCONSIN

CITY           SKY/WX    TMP DP  RH WIND       PRES   REMARKS
MANITOWISH WTR NOT AVBL
ARBOR VITAE    CLOUDY    27  25  95 SW6       29.88S WCI  20
WOODRUFF       CLOUDY    27  25  95 SW6       29.88S WCI  20
RHINELANDER    FOG       28  27  96 SW10      29.90S VSB 1   WCI  19
EAGLE RIVER    CLOUDY    25  25 100 SW8       29.88R FOG     WCI  16
LAND O LAKES   CLOUDY    19  19  97 S3        29.87F
PHILLIPS       CLOUDY   N/A N/A N/A SW9       29.90F
TOMAHAWK       CLOUDY    28  27  96 CALM      29.93R FOG
MEDFORD        FOG       29  28  98 SW7       29.94S VSB 1/2 WCI  22
MERRILL        FOG       29  29 100 CALM        N/A  VSB 1
$$

WIZ029-030-035-036-043>047-181200-
CENTRAL WISCONSIN

CITY           SKY/WX    TMP DP  RH WIND       PRES   REMARKS
WAUSAU         FOG       29  29 100 SW7       29.95R VSB 1/2 WCI  22
MOSINEE        SNOW      30  30 100 SW10      29.98R VSB 1/4 WCI  21
MARSHFIELD     FOG       30  29  96 SW14      29.96S VSB 1/4 WCI  19
STEVENS POINT  FOG       30  30 100 SW8       30.00R VSB 3/4 WCI  22
WAUPACA        CLOUDY    34  33  94 CALM      30.00S FOG
WAUTOMA        CLOUDY    32  32 100 SW9       30.02S FOG     WCI  24
WISC RAPIDS    FOG       31  31 100 SW12      30.01R VSB 1/2 WCI  22
CAMP DOUGLAS   CLOUDY    32  32 100 SW8       30.02R WCI  25
$$

WIZ011>013-019>022-031-037>040-048>050-181200-
NORTHEAST WISCONSIN

CITY           SKY/WX    TMP DP  RH WIND       PRES   REMARKS
ANTIGO         FOG       26  26 100 SW7       29.93S VSB 1/2 WCI  19
SHAWANO        CLOUDY    33  32  96 CALM      29.98R FOG
OCONTO         NOT AVBL
STURGEON BAY   FOG       30  30 100 SW9       29.97R VSB 3/4 WCI  22
GREEN BAY      FOG       34  34 100 SW7       29.99R VSB 3/4 WCI  28
MANITOWOC      FOG       33  32  96 W9        30.00R VSB 3/4 WCI  25
APPLETON       NOT AVBL
CLINTONVILLE   CLOUDY    32  32 100 W10       29.99R FOG     WCI  24
OSHKOSH        FOG       32  31  96 SW9       30.01R VSB 1/2 WCI  24
$$

WIZ032>034-041-042-053>061-181200-
SOUTHWEST WISCONSIN

CITY           SKY/WX    TMP DP  RH WIND       PRES   REMARKS
LA CROSSE      CLOUDY    34  30  85 S9        30.05R WCI  27
SPARTA         CLOUDY    31  31 100 CALM      30.04S
VIROQUA        CLOUDY    31  31 100 SW12G17   30.03R WCI  21
BOSCOBEL       CLOUDY    34  32  92 SW8       30.08R WCI  27
PRAIRIE DU CHI CLOUDY    32  31  94 SW10      30.09R WCI  24
PLATTEVILLE    CLOUDY    32  32 100 W13       30.08R WCI  23
$$

WIZ056-057-062-063-064-067-068-181200-
SOUTH CENTRAL WISCONSIN

CITY           SKY/WX    TMP DP  RH WIND       PRES   REMARKS
REEDSBURG      CLOUDY    32  32 100 SW8       30.04R FOG     WCI  25
BARABOO/DELLS  FOG       32  32 100 SW8       30.03S VSB 1/4 WCI  25
LONE ROCK      CLOUDY    33  31  92 W6        30.07S WCI  28
MINERAL POINT  FOG       34  34 100 SW7       30.07R VSB 1/4 WCI  28
MADISON        CLOUDY    32  31  96 MISG      30.06R
MIDDLETON      CLOUDY    34  34 100 SW6       30.05S WCI  29
WATERTOWN      CLOUDY    33  33 100 SW6       30.04S FOG     WCI  28
MONROE         FOG       32  32 100 SW15      30.07R VSB 1   WCI  22
JANESVILLE     CLOUDY    34  34 100 W9        30.07S FOG     WCI  26
$$

WIZ051-052-058>065-066-070>072-181200-
SOUTHEAST WISCONSIN

CITY           SKY/WX    TMP DP  RH WIND       PRES   REMARKS
MILWAUKEE      CLOUDY    36  33  89 W7        30.04R FOG     WCI  30
WAUKESHA       CLOUDY    32  32 100 SW7       30.04S FOG     WCI  26
MILWAUKEE/TIMM CLOUDY    34  32  93 W7        30.05R FOG     WCI  28
RACINE         CLOUDY    35  33  92 SW5       30.07R FOG     WCI  31
KENOSHA        CLOUDY    35  33  92 SW9       30.06R FOG     WCI  28
FOND DU LAC    FOG       32  30  92 W8        30.02R VSB 1/2 WCI  25
SHEBOYGAN      CLOUDY    33  32  96 W9        30.00S FOG     WCI  25
WEST BEND      CLOUDY    34  34 100 W6        30.02R FOG     WCI  29
JUNEAU         FOG       32  32  99 SW13      30.04S VSB 1/4 WCI  22
$$

LSZ147-162-181200-
LAKE SUPERIOR

STATION/POSITION TIME  TEMP    WIND        PRES    WAVE
                       AIR SEA DIR/SP/G            HT/PER
                 (UTC) (F)     (DEG/KT/KT) (MB)    (FT/S)
DEVILS ISLAND    1100   31     220/ 10/ 12 1009.8F
PORT WING        1030   30     200/  9/ 12 1010.5R
SAXON HARBOR     1030   31     200/ 11/ 19 1009.8F
$$

LMZ867-665-643>646-181200-
LAKE MICHIGAN

STATION/POSITION TIME  TEMP    WIND        PRES    WAVE
                       AIR SEA DIR/SP/G            HT/PER
                 (UTC) (F)     (DEG/KT/KT) (MB)    (FT/S)
NORTHPORT PIER   1040   33      CALM  /  4 1013.9S
SISTER BAY       1050   33     200/  3/  5   N/A
ALGOMA LAKESHORE 0954           CALM  /  5   N/A
KEWAUNEE LAKESHO 1042   32     260/  9/ 11 1014.5F
SHEBOYGAN LAKESH 1100   34     250/  9/ 11 1016.5R
PORT WASHINGTON  1030   36     260/  9/ 13 1017.3R
MILWAUKEE LAKESH 1050   36     250/  7/  7   N/A
KENOSHA   LAKESH 1100   35     240/  7/ 11 1018.3
$$

TC  - TEMPERATURE IN CELSIUS
VSB - VISIBILITY IN STATUTE MILES
WCI - WIND CHILL INDEX
HX  - HEAT INDEX





USA.gov is the U.S. government's official web portal to all federal, state and local government web resources and services.